Location: ?
(35.4554°N, 139.3092°E)
Time: 22:58:56
(UTC+00:00)

ERS-1 Rocket - Pass Details

Date: 21 April 2021
Orbit: 753 x 758 km, 98.4° (Epoch: 10 May)

Event Time Altitude Azimuth Distance (km) Brightness Sun altitude
Exits shadow 12:14:09 35° 13° (NNE) 1,216 4.2 -31.1°
Drops below altitude 10° 12:17:08 10° 356° (N) 2,282 6.0 -31.5°
Sets 12:19:27 0° 353° (N) 3,211 7.0 -31.8°
